User: anonymous   Login
Location: The Jewett Observatory
(46.7288°N, 117.1525°W)
Time: 17:02:42
(UTC-07:00)
Language:

Cosmos 1633 - Orbit

View from above orbital plane
View from above orbital plane
View from above satellite
View from above satellite

Ground track
Ground track

The orbit data is extracted from the following two-line orbital elements,

1 15592U 85020A   16270.08230264  .00002983  00000-0  10950-3 0  9998
2 15592  82.5385 223.7202 0015246  37.3207 322.9088 15.27432541723966
Epoch (UTC): 26 September 2016 01:58:30
Eccentricity: 0.0015246
inclination: 82.5385°
perigee height: 473 km
apogee height: 494 km
right ascension of ascending node: 223.7202°
argument of perigee: 37.3207°
revolutions per day: 15.27432541
mean anomaly at epoch: 322.9088°
orbit number at epoch: 72396

The dashed part of the orbit path shows where the satellite is in the earth's shadow,  

DLR